Iowa City, IA

4:36 AM CDT on October 24, 2017 (GMT -0500)
Iowa City Municipal

Weather History for KIOW - November, 2012

Change the Weather History Date:

Friday, November 30, 2012

  Actual Average Record
Temperature  
Mean Temperature 40 °F 31 °F  
Max Temperature 53 °F 39 °F 66 °F (1998)
Min Temperature 26 °F 23 °F -5 °F (1964)
Degree Days  
Heating Degree Days 25 34  
Month to date heating degree days 739 784  
Since 1 July heating degree days 1339 1307  
Cooling Degree Days 0 0  
Month to date cooling degree days 0 0  
Year to date cooling degree days 1266 912  
Moisture  
Dew Point 32 °F    
Average Humidity 73    
Maximum Humidity 92    
Minimum Humidity 54    
Precipitation  
Precipitation 0.00 in 0.07 in 0.75 in (1975)
Month to date precipitation 1.63 2.35  
Year to date precipitation 24.83 34.76  
Sea Level Pressure  
Sea Level Pressure 30.08 in    
Wind  
Wind Speed 4 mph (ENE)    
Max Wind Speed 12 mph    
Max Gust Speed 14 mph    
Visibility 8 miles    
Events      
T = Trace of Precipitation, MM = Missing Value Source: NWS Daily Summary

Daily Weather History Graph

Daily Weather History Graph

Search for Another Location

Airport or City:

Trip Planner

Search our weather history database for the weather conditions in past years. The results will help you decide how hot, cold, wet, or windy it might be!

Date:

Astronomy

Nov. 30, 2012 Rise Set
Actual Time 7:13 AM CST 4:36 PM CST
Civil Twilight 6:42 AM CST 5:07 PM CST
Nautical Twilight 6:07 AM CST 5:42 PM CST
Astronomical Twilight 5:34 AM CST 6:15 PM CST
Moon 6:32 PM CST (11/30) 8:45 AM CST (11/30)
Length of Visible Light 10h 25m
Length of Day
9h 23m
Waning Gibbous, 96% of the Moon is Illuminated
Nov 30
Waning Gibbous
Dec 6
Last Quarter
Dec 13
New
Dec 19
First Quarter
Dec 28
Full

Hourly Weather History & Observations

Time (CST) Temp. Windchill Dew Point Humidity Pressure Visibility Wind Dir Wind Speed Gust Speed Precip Events Conditions
12:52 AM 28.0 °F - 27.0 °F 96% 30.04 in 8.0 mi Calm Calm - N/A   Clear
1:52 AM 30.0 °F - 27.0 °F 88% 30.02 in 9.0 mi Calm Calm - N/A   Clear
2:52 AM 28.0 °F - 25.0 °F 88% 30.04 in 9.0 mi Calm Calm - N/A   Clear
3:52 AM 27.0 °F - 25.0 °F 92% 30.02 in 6.0 mi Calm Calm - N/A   Clear
4:52 AM 27.0 °F - 24.1 °F 89% 30.03 in 7.0 mi Calm Calm - N/A   Clear
5:52 AM 26.1 °F - 24.1 °F 92% 30.04 in 7.0 mi Calm Calm - N/A   Clear
6:52 AM 30.0 °F 26.5 °F 28.0 °F 92% 30.07 in 7.0 mi NNE 3.5 mph - N/A   Clear
7:52 AM 32.0 °F 26.4 °F 28.9 °F 88% 30.08 in 5.0 mi NNE 5.8 mph - N/A   Clear
8:52 AM 37.0 °F 34.5 °F 33.1 °F 86% 30.08 in 6.0 mi ENE 3.5 mph - N/A   Clear
9:52 AM 42.1 °F 38.4 °F 34.0 °F 73% 30.10 in 9.0 mi ENE 5.8 mph - N/A   Clear
10:52 AM 46.0 °F 41.9 °F 36.0 °F 68% 30.10 in 10.0 mi NE 8.1 mph - N/A   Clear
11:52 AM 48.9 °F - 36.0 °F 61% 30.09 in 10.0 mi ENE 6.9 mph - N/A   Clear
12:52 PM 51.1 °F - 36.0 °F 56% 30.08 in 10.0 mi ENE 4.6 mph - N/A   Clear
1:52 PM 53.1 °F - 37.0 °F 55% 30.07 in 10.0 mi ENE 6.9 mph - N/A   Clear
2:52 PM 52.0 °F - 36.0 °F 54% 30.09 in 10.0 mi ENE 4.6 mph - N/A   Clear
3:52 PM 50.0 °F - 36.0 °F 59% 30.10 in 10.0 mi ENE 5.8 mph - N/A   Clear
4:52 PM 46.9 °F - 35.1 °F 63% 30.11 in 9.0 mi NE 5.8 mph - N/A   Clear
5:52 PM 45.0 °F 41.8 °F 36.0 °F 71% 30.13 in 7.0 mi ENE 5.8 mph - N/A   Clear
6:52 PM 44.1 °F 40.1 °F 36.0 °F 73% 30.12 in 6.0 mi ENE 6.9 mph - N/A   Haze
7:52 PM 43.0 °F 39.5 °F 36.0 °F 76% 30.12 in 6.0 mi ENE 5.8 mph - N/A   Haze
8:52 PM 39.0 °F 35.7 °F 34.0 °F 82% 30.12 in 6.0 mi NE 4.6 mph - N/A   Haze
9:52 PM 37.9 °F 34.4 °F 34.0 °F 86% 30.10 in 5.0 mi ENE 4.6 mph - N/A   Clear
10:52 PM 39.0 °F 36.8 °F 34.0 °F 82% 30.10 in 7.0 mi Variable 3.5 mph - N/A   Clear
11:52 PM 37.9 °F 33.5 °F 33.1 °F 83% 30.11 in 8.0 mi East 5.8 mph - N/A   Clear